Regional Weather Roundup
Issued by NWS

Home | Current Version | Previous Version | Graphics & Text | Print | Product List | Glossary Off
Versions: 1 2 3 4 5 6 7 8 9 10 11 12 13 14 15 16 17 18 19 20 21 22 23 24 25 26 27 28 29 30 31 32 33 34 35 36 37 38 39 40 41 42 43 44 45 46 47 48 49 50

000
ASUS43 KFSD 240002
RWRSD

WEATHER ROUNDUP FOR SOUTH DAKOTA
NATIONAL WEATHER SERVICE SIOUX FALLS SD
700 PM CDT TUE SEP 23 2014

NOTE: "FAIR" INDICATES FEW OR NO CLOUDS BELOW 12,000 FEET WITH NO
SIGNIFICANT WEATHER AND/OR OBSTRUCTIONS TO VISIBILITY.


SDZ001>005-009-010-012>017-240100-
NORTHWEST AND NORTH CENTRAL SOUTH DAKOTA

CITY           SKY/WX    TMP DP  RH WIND       PRES   REMARKS
FAITH            N/A     73  57  57 SE9       29.89S
MOBRIDGE       CLOUDY    63  58  83 SE12      29.90S
$$

SDZ012>016-024>037-041>051-057-063-072>074-240100-
SOUTHWEST AND SOUTH CENTRAL SOUTH DAKOTA

CITY           SKY/WX    TMP DP  RH WIND       PRES   REMARKS
RAPID CTY ARPT CLEAR     78  54  43 E3        29.93R
PIERRE         PTCLDY    67  57  70 E16       29.88S
CUSTER         PTCLDY    66  51  58 E5        30.08R
ELLSWORTH AFB  CLEAR     78  54  42 SE2       29.93R
PHILIP         CLEAR     76  58  53 SE5       29.88R
PINE RIDGE     PTCLDY    73  54  51 W5        29.96R
WINNER         FAIR      69  59  70 SE17      29.89S
$$

SDZ004>011-016>023-039-040-240100-
NORTHEAST SOUTH DAKOTA

CITY           SKY/WX    TMP DP  RH WIND       PRES   REMARKS
ABERDEEN       LGT RAIN  58  56  93 SE12      29.98F
WATERTOWN      LGT RAIN  55  54  96 S13       30.03S
SISSETON         N/A     60  56  86 S17G25    30.02F
$$

SDZ017-020-022-023-036>040-048>070-240100-
SOUTHEAST SOUTH DAKOTA

CITY           SKY/WX    TMP DP  RH WIND       PRES   REMARKS
SIOUX FALLS    CLOUDY    62  55  77 S14       30.03S
HURON          CLOUDY    59  57  93 SE10      29.96F FOG
CHAMBERLAIN    PTCLDY    64  58  81 SE14G21   29.91S
MITCHELL       CLOUDY    63  59  87 SE13G20   29.97F
YANKTON        CLOUDY    63  57  82 SE8       30.00S
$$

ABBREVIATIONS USED IN REMARKS
   TC - TEMPERATURE IN CELSIUS
  WCI - WIND CHILL INDEX
   HX - HEAT INDEX
  VSB - VISIBILITY




USA.gov is the U.S. government's official web portal to all federal, state and local government web resources and services.